(410) Chloris
ephemeris date magn radius delta ra dec elong phase
Today20 May 202514.33.076 AU4.052 AU03h07m+10°37'13.2°4.3°
Opposition5 Dec 202513.23.338 AU2.357 AU04h54m+16°24'173.8°1.8°
(410) Chloris - 2025-05-20
astro.vanbuitenen.nl


 
-1 year
-1 month
-1 day
Now
+1 day
+1 month
+1 year

The interactive orbit chart above shows the body's path through the solar system and its position at the given date. Green and blue lines are shown perpendicular to the ecliptic plane: Green if the path is above the ecliptic plane, blue if it is below. (Left-click and drag to rotate the view; Right-click and drag to move the view; Use scroll wheel to zoom in our out.)

The orbital elements of Chloris are:

            e (Eccentricity)                : 0.2405490
            a (Semimajor axis)              : 2.7244982
            i (Inclination)                 : 10.96367
            Ω (Longitude of ascending node) : 96.91422
            ω (Argument of perihelion)      : 172.79432
            M (Mean anomaly)                : 107.53029
            Epoch                           : 2025 May 05

            L (Longitude of perihelion)     : 89.83871
            B (Latitude of perihelion)      : 1.36694
            P (Orbital period in years)     : 4.50            
        

The light curve chart below shows the estimated development of the minor planet's magnitude.


The all-sky chart below shows the path of the minor planet over the same period as the light curve. The current position is marked yellow.





The following chart shows the path of the minor planet in the next few days. The field of view is optimized for (~10x50) binoculars and finderscopes. A more printer-friendly version of the same chart can be found below.




Ephemerides:
Date       Time       RA (2000)    DEC (2000)    delta   radius  elong  phase   PA    magn
2025-05-20 00:00 UT   03 07 41.5   +10 37 34     4.052    3.076   13.2    4.3   224   14.3 
2025-05-20 18:56 UT   03 08 47.6   +10 42 37     4.052    3.078   13.6    4.4   225   14.3 
2025-05-21 00:00 UT   03 09 05.3   +10 43 58     4.052    3.078   13.7    4.5   226   14.3 
2025-05-22 00:00 UT   03 10 29.2   +10 50 19     4.051    3.080   14.2    4.6   227   14.3 
2025-05-23 00:00 UT   03 11 52.9   +10 56 36     4.050    3.082   14.8    4.8   228   14.4 
2025-05-24 00:00 UT   03 13 16.6   +11 02 50     4.049    3.084   15.3    5.0   229   14.4 
2025-05-25 00:00 UT   03 14 40.2   +11 08 60     4.047    3.085   15.8    5.1   230   14.4 
2025-05-26 00:00 UT   03 16 03.7   +11 15 06     4.046    3.087   16.4    5.3   232   14.4 
2025-05-27 00:00 UT   03 17 27.1   +11 21 08     4.044    3.089   16.9    5.5   232   14.4 
2025-05-28 00:00 UT   03 18 50.4   +11 27 07     4.042    3.091   17.5    5.7   233   14.4 
2025-05-29 00:00 UT   03 20 13.6   +11 33 03     4.040    3.093   18.0    5.8   234   14.4 
2025-05-30 00:00 UT   03 21 36.7   +11 38 54     4.038    3.095   18.6    6.0   235   14.4 
2025-05-31 00:00 UT   03 22 59.8   +11 44 42     4.036    3.096   19.2    6.2   236   14.4 
2025-06-01 00:00 UT   03 24 22.6   +11 50 26     4.034    3.098   19.7    6.3   237   14.4 
2025-06-02 00:00 UT   03 25 45.4   +11 56 06     4.031    3.100   20.3    6.5   237   14.4 
2025-06-03 00:00 UT   03 27 08.1   +12 01 43     4.028    3.102   20.9    6.7   238   14.4 
2025-06-04 00:00 UT   03 28 30.6   +12 07 15     4.026    3.104   21.4    6.9   239   14.5 
2025-06-05 00:00 UT   03 29 53.0   +12 12 44     4.022    3.105   22.0    7.0   239   14.5 
2025-06-06 00:00 UT   03 31 15.3   +12 18 10     4.019    3.107   22.6    7.2   240   14.5 
2025-06-07 00:00 UT   03 32 37.4   +12 23 31     4.016    3.109   23.2    7.4   241   14.5 
2025-06-08 00:00 UT   03 33 59.4   +12 28 49     4.013    3.111   23.8    7.6   241   14.5 
2025-06-09 00:00 UT   03 35 21.2   +12 34 03     4.009    3.113   24.3    7.7   242   14.5 
2025-06-10 00:00 UT   03 36 42.9   +12 39 13     4.005    3.114   24.9    7.9   242   14.5 
2025-06-11 00:00 UT   03 38 04.4   +12 44 20     4.001    3.116   25.5    8.1   243   14.5 
2025-06-12 00:00 UT   03 39 25.8   +12 49 22     3.997    3.118   26.1    8.2   243   14.5 
2025-06-13 00:00 UT   03 40 47.0   +12 54 21     3.993    3.120   26.7    8.4   244   14.5 


    Terminology:
            
    delta:  distance between minor planet and earth in AU
    radius: distance between minor planet and sun in AU
    magn:   magnitude (brightness) estimate    
    ra:     right ascension in hours (24h = 360deg)
    dec:    declination in degrees
    elong:  elongation in degrees (angle sun-earth-minor planet)    
    phase:  phase angle in degrees (angle sun-minor planet-earth)        
    AU:     Astronomical Unit (mean distance between earth and sun: 149597870.7 km
    

Orbital elements provided by the MPC (Minor Planet Center).
Calculations by a modified version of AAPlus, a C# implementation of the AA+ project by PJ Naughter from the algorithms presented in the book "Astronomical Algorithms" by Jean Meeus.
NGC2000 dso catalog and star labels from VizieR as provided by the Strasbourg astronomical Data Center.
Tycho2 catalog from the ESO archive.